User: anonymous
Location: Vancouver
(49.2500°N, 123.1330°W)
Time: 16:37:13
(UTC-07:00)
Language:

Cosmos 1939 Rocket - Orbit

View from above orbital plane
View from above orbital plane
View from above satellite
View from above satellite

Ground track
Ground track

The orbit data is extracted from the following two-line orbital elements,

1 19046U 88032B   14260.22084474  .00002422  00000-0  19810-3 0  9818
2 19046 097.6377 313.1247 0038390 148.5258 211.8274 14.99707656421992
Epoch (UTC): 17 September 2014 05:18:00
Eccentricity: 0.0038390
inclination: 97.6377°
perigee height: 541 km
apogee height: 594 km
right ascension of ascending node: 313.1247°
argument of perigee: 148.5258°
revolutions per day: 14.99707656
mean anomaly at epoch: 211.8274°
orbit number at epoch: 42199

The dashed part of the orbit path shows where the satellite is in the earth's shadow,  

DLR